Weather History for Lamoni, IA

Change the Weather History Date:

Monday, November 18, 2013

  Actual Average Record
Temperature  
Mean Temperature 43 °F 38 °F  
Max Temperature 52 °F 47 °F 75 °F (1999)
Min Temperature 34 °F 29 °F 11 °F (1989)
Degree Days  
Heating Degree Days 22 27  
Month to date heating degree days 373 403  
Since 1 July heating degree days 807 887  
Cooling Degree Days 0 0  
Month to date cooling degree days 0 0  
Year to date cooling degree days 1093 946  
Moisture  
Dew Point 30 °F    
Average Humidity 67    
Maximum Humidity 89    
Minimum Humidity 44    
Precipitation  
Precipitation 0.00 in 0.05 in 1.51 in (1985)
Month to date precipitation 1.00 1.56  
Sea Level Pressure  
Sea Level Pressure 30.20 in    
Wind  
Wind Speed 9 mph (WNW)    
Max Wind Speed 16 mph    
Max Gust Speed 21 mph    
Visibility 10 miles    
Events      
T = Trace of Precipitation, MM = Missing Value Source: NWS Daily Summary

Daily Weather History Graph

Daily Weather History Graph

Search for Another Location

Airport:

Trip Planner

Search our weather history database for the weather conditions in past years. The results will help you decide how hot, cold, wet, or windy it might be!

Date:

Astronomy

Nov. 18, 2013 Rise Set
Actual Time 7:06 AM CST 4:55 PM CST
Civil Twilight 6:36 AM CST 5:24 PM CST
Nautical Twilight 6:03 AM CST 5:58 PM CST
Astronomical Twilight 5:30 AM CST 6:30 PM CST
Moon 5:58 PM CST (11/18) 7:55 AM CST (11/18)
Length of Visible Light 10h 48m
Length of Day
9h 49m
Full, 99% of the Moon is Illuminated
Nov 18
Full
Nov 25
Last Quarter
Dec 2
New
Dec 9
First Quarter
Dec 17
Full

Hourly Weather History & Observations

Time (CST) Temp. Windchill Dew Point Humidity Pressure Visibility Wind Dir Wind Speed Gust Speed Precip Events Conditions
12:53 AM 39.9 °F 32.1 °F 34.0 °F 79% 30.03 in 10.0 mi WNW 13.8 mph - N/A   Clear
1:53 AM 37.9 °F 31.5 °F 33.1 °F 83% 30.04 in 10.0 mi WNW 9.2 mph - N/A   Clear
2:53 AM 36.0 °F 29.0 °F 32.0 °F 86% 30.07 in 10.0 mi West 9.2 mph - N/A   Clear
3:53 AM 35.1 °F 27.4 °F 32.0 °F 89% 30.09 in 10.0 mi West 10.4 mph - N/A   Clear
4:53 AM 35.1 °F 26.9 °F 30.9 °F 85% 30.10 in 10.0 mi WNW 11.5 mph - N/A   Clear
5:53 AM 35.1 °F 26.4 °F 30.9 °F 85% 30.12 in 10.0 mi NW 12.7 mph - N/A   Clear
6:53 AM 35.1 °F 25.5 °F 30.0 °F 82% 30.15 in 10.0 mi NW 15.0 mph - N/A   Clear
7:53 AM 35.1 °F 26.9 °F 30.0 °F 82% 30.19 in 10.0 mi NW 11.5 mph - N/A   Clear
8:53 AM 39.9 °F 32.9 °F 30.9 °F 70% 30.22 in 10.0 mi WNW 11.5 mph - N/A   Clear
9:53 AM 43.0 °F 36.4 °F 33.1 °F 68% 30.25 in 10.0 mi WNW 12.7 mph - N/A   Clear
10:53 AM 46.0 °F 40.6 °F 32.0 °F 58% 30.26 in 10.0 mi WNW 11.5 mph - N/A   Clear
11:53 AM 48.9 °F - 32.0 °F 52% 30.26 in 10.0 mi West 12.7 mph - N/A   Clear
12:53 PM 50.0 °F - 32.0 °F 50% 30.25 in 10.0 mi West 10.4 mph - N/A   Clear
1:53 PM 51.1 °F - 30.9 °F 46% 30.24 in 10.0 mi West 9.2 mph - N/A   Clear
2:53 PM 52.0 °F - 30.0 °F 43% 30.23 in 10.0 mi WNW 9.2 mph - N/A   Clear
3:53 PM 51.1 °F - 30.0 °F 44% 30.24 in 10.0 mi NW 8.1 mph - N/A   Clear
4:53 PM 46.9 °F - 28.9 °F 50% 30.25 in 10.0 mi WNW 3.5 mph - N/A   Clear
5:53 PM 46.9 °F - 28.0 °F 48% 30.26 in 10.0 mi Calm Calm - N/A   Clear
6:53 PM 46.0 °F 43.9 °F 28.9 °F 51% 30.26 in 10.0 mi East 4.6 mph - N/A   Clear
7:53 PM 44.1 °F 40.8 °F 28.9 °F 55% 30.26 in 10.0 mi SE 5.8 mph - N/A   Clear
8:53 PM 43.0 °F 38.8 °F 28.9 °F 58% 30.27 in 10.0 mi SE 6.9 mph - N/A   Clear
9:53 PM 42.1 °F 38.4 °F 28.0 °F 58% 30.27 in 10.0 mi SE 5.8 mph - N/A   Clear
10:53 PM 39.0 °F 34.8 °F 28.0 °F 65% 30.28 in 10.0 mi ESE 5.8 mph - N/A   Clear
11:53 PM 37.0 °F 32.4 °F 28.0 °F 70% 30.28 in 10.0 mi SE 5.8 mph - N/A   Clear